SAS0377 ENAL-ENVA

Flight info

Callsign SAS0377
Flight time 0h 36m
Altitude 21000
Route NELSU
Aircraft B738/M-SDFGHIRWXYZ/LB1

Departure

Time 2026-05-01 09:03
Airport Ålesund Airport (ENAL)

Arrival

Time 2026-05-01 09:40
Airport Trondheim Airport, Værnes (ENVA)
Time Latitude Longitude Altitude Speed Heading
2026-05-01 08:29 62.55920 6.11475 73 ft 0 kts 153°
2026-05-01 08:53 62.55921 6.11474 78 ft 1 kts 153°
2026-05-01 08:53 62.55942 6.11452 68 ft 4 kts 154°
2026-05-01 08:53 62.55955 6.11438 74 ft 0 kts 154°
2026-05-01 08:57 62.55952 6.11446 73 ft 2 kts 135°
2026-05-01 08:57 62.55951 6.11475 70 ft 2 kts 78°
2026-05-01 08:57 62.55967 6.11497 73 ft 4 kts 23°
2026-05-01 08:58 62.55987 6.11542 78 ft 5 kts 52°
2026-05-01 08:58 62.56018 6.11573 73 ft 5 kts 359°
2026-05-01 08:58 62.56050 6.11607 74 ft 6 kts 48°
2026-05-01 08:58 62.56075 6.11704 68 ft 10 kts 62°
2026-05-01 08:59 62.56110 6.11865 72 ft 13 kts 64°
2026-05-01 08:59 62.56142 6.12011 75 ft 5 kts 63°
2026-05-01 08:59 62.56155 6.12053 75 ft 6 kts 51°
2026-05-01 08:59 62.56215 6.12128 70 ft 13 kts 16°
2026-05-01 09:00 62.56276 6.12143 65 ft 8 kts 22°
2026-05-01 09:00 62.56315 6.12268 62 ft 14 kts 64°
2026-05-01 09:00 62.56367 6.12507 55 ft 21 kts 65°
2026-05-01 09:00 62.56426 6.12778 49 ft 13 kts 64°
2026-05-01 09:01 62.56438 6.12927 47 ft 9 kts 101°
2026-05-01 09:01 62.56444 6.13025 47 ft 6 kts 50°
2026-05-01 09:01 62.56469 6.12988 46 ft 6 kts 267°
2026-05-01 09:01 62.56454 6.12908 42 ft 6 kts 245°
2026-05-01 09:02 62.56438 6.12831 48 ft 6 kts 244°
2026-05-01 09:02 62.56406 6.12682 50 ft 31 kts 245°
2026-05-01 09:02 62.56216 6.11816 72 ft 95 kts 245°
2026-05-01 09:02 62.55844 6.10140 61 ft 151 kts 243°
2026-05-01 09:03 62.55377 6.08007 654 ft 154 kts 242°
2026-05-01 09:03 62.54920 6.05911 1402 ft 159 kts 242°
2026-05-01 09:03 62.54441 6.03753 2124 ft 164 kts 239°
2026-05-01 09:03 62.53900 6.01357 2315 ft 191 kts 240°
2026-05-01 09:04 62.53279 5.98628 2483 ft 212 kts 240°
2026-05-01 09:04 62.52602 5.95663 2728 ft 231 kts 240°
2026-05-01 09:04 62.51864 5.92442 3188 ft 242 kts 240°
2026-05-01 09:04 62.51171 5.89148 4035 ft 240 kts 251°
2026-05-01 09:05 62.51195 5.85585 5157 ft 242 kts 277°
2026-05-01 09:05 62.52023 5.82304 5940 ft 261 kts 302°
2026-05-01 09:05 62.53415 5.79637 6656 ft 276 kts 319°
2026-05-01 09:05 62.55130 5.77727 7390 ft 284 kts 328°
2026-05-01 09:06 62.57119 5.76864 8095 ft 307 kts 357°
2026-05-01 09:06 62.59200 5.78268 8846 ft 324 kts 29°
2026-05-01 09:06 62.60777 5.81777 9576 ft 331 kts 61°
2026-05-01 09:06 62.61705 5.86372 10286 ft 335 kts 71°
2026-05-01 09:07 62.62567 5.91216 10578 ft 355 kts 70°
2026-05-01 09:07 62.63536 5.96301 10896 ft 372 kts 67°
2026-05-01 09:07 62.64576 6.01520 11478 ft 379 kts 66°
2026-05-01 09:07 62.65495 6.06842 12152 ft 383 kts 75°
2026-05-01 09:08 62.66129 6.12482 12869 ft 387 kts 80°
2026-05-01 09:08 62.66650 6.18262 13599 ft 392 kts 82°
2026-05-01 09:08 62.67146 6.24131 14299 ft 396 kts 82°
2026-05-01 09:08 62.67653 6.30072 14975 ft 402 kts 81°
2026-05-01 09:09 62.68185 6.36056 15709 ft 405 kts 81°
2026-05-01 09:09 62.68735 6.42102 16439 ft 409 kts 81°
2026-05-01 09:09 62.69299 6.48206 17124 ft 414 kts 81°
2026-05-01 09:09 62.69872 6.54347 17939 ft 414 kts 81°
2026-05-01 09:10 62.70437 6.60394 18774 ft 411 kts 81°
2026-05-01 09:10 62.71007 6.66494 19541 ft 410 kts 81°
2026-05-01 09:10 62.71572 6.72572 20265 ft 410 kts 80°
2026-05-01 09:10 62.72135 6.78669 20965 ft 411 kts 80°
2026-05-01 09:11 62.72699 6.84808 21140 ft 415 kts 81°
2026-05-01 09:11 62.73261 6.90952 21115 ft 410 kts 81°
2026-05-01 09:11 62.73813 6.97023 21137 ft 407 kts 81°
2026-05-01 09:11 62.74363 7.03105 21143 ft 410 kts 81°
2026-05-01 09:12 62.74905 7.09135 21137 ft 411 kts 81°
2026-05-01 09:12 62.75452 7.15258 21133 ft 412 kts 81°
2026-05-01 09:12 62.75998 7.21392 21137 ft 412 kts 81°
2026-05-01 09:12 62.76541 7.27525 21126 ft 412 kts 81°
2026-05-01 09:13 62.77082 7.33665 21131 ft 411 kts 81°
2026-05-01 09:13 62.77619 7.39793 21130 ft 411 kts 81°
2026-05-01 09:13 62.78152 7.45919 21098 ft 410 kts 81°
2026-05-01 09:13 62.78682 7.52025 21120 ft 408 kts 81°
2026-05-01 09:14 62.79207 7.58116 21125 ft 408 kts 81°
2026-05-01 09:14 62.79722 7.64124 21122 ft 408 kts 81°
2026-05-01 09:14 62.80242 7.70223 21120 ft 408 kts 81°
2026-05-01 09:14 62.80758 7.76307 21107 ft 408 kts 81°
2026-05-01 09:15 62.81274 7.82399 21109 ft 408 kts 81°
2026-05-01 09:15 62.81787 7.88508 21121 ft 408 kts 81°
2026-05-01 09:15 62.82315 7.94601 21110 ft 409 kts 77°
2026-05-01 09:15 62.83406 8.00305 21101 ft 406 kts 54°
2026-05-01 09:16 62.85099 8.05226 21117 ft 405 kts 48°
2026-05-01 09:16 62.86844 8.09942 21085 ft 401 kts 47°
2026-05-01 09:16 62.88581 8.14603 21016 ft 390 kts 47°
2026-05-01 09:17 62.91933 8.23677 20808 ft 378 kts 47°
2026-05-01 09:17 62.93570 8.28171 20512 ft 375 kts 47°
2026-05-01 09:17 62.96782 8.37073 19947 ft 369 kts 48°
2026-05-01 09:18 62.98369 8.41496 19642 ft 368 kts 48°
2026-05-01 09:18 63.01505 8.50276 19005 ft 365 kts 48°
2026-05-01 09:19 63.04638 8.59058 18325 ft 366 kts 48°
2026-05-01 09:19 63.06215 8.63500 17917 ft 367 kts 48°
2026-05-01 09:19 63.07783 8.67926 17570 ft 366 kts 48°
2026-05-01 09:20 63.10903 8.76758 16954 ft 364 kts 49°
2026-05-01 09:20 63.12732 8.86865 16348 ft 359 kts 90°
2026-05-01 09:21 63.12575 8.97801 15731 ft 355 kts 98°
2026-05-01 09:21 63.12411 9.03233 15405 ft 354 kts 98°
2026-05-01 09:21 63.12108 9.14052 14797 ft 352 kts 96°
2026-05-01 09:22 63.11843 9.24776 14175 ft 351 kts 96°
2026-05-01 09:22 63.11589 9.35491 13534 ft 348 kts 96°
2026-05-01 09:23 63.11459 9.40822 13213 ft 347 kts 96°
2026-05-01 09:23 63.11198 9.51432 12592 ft 344 kts 96°
2026-05-01 09:24 63.10932 9.61918 12032 ft 339 kts 97°
2026-05-01 09:24 63.10812 9.67131 11664 ft 341 kts 95°
2026-05-01 09:24 63.10639 9.77554 10930 ft 342 kts 95°
2026-05-01 09:25 63.10464 9.87940 10156 ft 334 kts 94°
2026-05-01 09:25 63.10282 9.97917 9564 ft 318 kts 94°
2026-05-01 09:26 63.10186 10.02809 9148 ft 315 kts 94°
2026-05-01 09:26 63.10949 10.11978 8417 ft 303 kts 52°
2026-05-01 09:26 63.12370 10.15257 8113 ft 291 kts 30°
2026-05-01 09:27 63.15804 10.19667 7509 ft 289 kts 25°
2026-05-01 09:27 63.17566 10.21862 7198 ft 291 kts 25°
2026-05-01 09:27 63.19323 10.24073 6883 ft 291 kts 26°
2026-05-01 09:28 63.21070 10.26298 6555 ft 287 kts 26°
2026-05-01 09:28 63.22787 10.28498 6241 ft 282 kts 27°
2026-05-01 09:28 63.24478 10.30669 5926 ft 279 kts 27°
2026-05-01 09:28 63.26132 10.32793 5737 ft 272 kts 27°
2026-05-01 09:29 63.29306 10.36882 5276 ft 259 kts 27°
2026-05-01 09:29 63.30834 10.38848 5113 ft 250 kts 27°
2026-05-01 09:30 63.33759 10.42622 4650 ft 234 kts 27°
2026-05-01 09:30 63.35148 10.44418 4473 ft 228 kts 28°
2026-05-01 09:30 63.37831 10.47898 4089 ft 219 kts 26°
2026-05-01 09:31 63.39158 10.49537 3874 ft 216 kts 19°
2026-05-01 09:31 63.40515 10.50674 3711 ft 207 kts 15°
2026-05-01 09:31 63.43224 10.52819 3284 ft 205 kts 14°
2026-05-01 09:32 63.44553 10.53795 3116 ft 196 kts 16°
2026-05-01 09:32 63.47047 10.55703 2451 ft 192 kts 17°
2026-05-01 09:32 63.48318 10.56655 2111 ft 185 kts 17°
2026-05-01 09:33 63.49510 10.57529 2195 ft 178 kts 17°
2026-05-01 09:33 63.50694 10.58179 2250 ft 176 kts 355°
2026-05-01 09:33 63.52232 10.54888 2277 ft 159 kts 274°
2026-05-01 09:34 63.52293 10.52416 2273 ft 160 kts 271°
2026-05-01 09:34 63.52258 10.49933 2254 ft 160 kts 253°
2026-05-01 09:34 63.50422 10.48227 2307 ft 165 kts 175°
2026-05-01 09:35 63.49310 10.48910 2254 ft 167 kts 147°
2026-05-01 09:35 63.47929 10.53096 2285 ft 171 kts 125°
2026-05-01 09:35 63.47275 10.55310 2249 ft 170 kts 125°
2026-05-01 09:36 63.46498 10.57226 2175 ft 166 kts 151°
2026-05-01 09:36 63.45629 10.58904 2049 ft 171 kts 117°
2026-05-01 09:36 63.45502 10.61635 1438 ft 186 kts 84°
2026-05-01 09:36 63.45607 10.64545 960 ft 183 kts 87°
2026-05-01 09:37 63.45655 10.67157 991 ft 157 kts 88°
2026-05-01 09:37 63.45750 10.72031 826 ft 157 kts 89°
2026-05-01 09:37 63.45755 10.74493 1007 ft 160 kts 90°
2026-05-01 09:38 63.45753 10.79360 1027 ft 155 kts 88°
2026-05-01 09:38 63.45764 10.81664 857 ft 143 kts 90°
2026-05-01 09:38 63.45758 10.83890 631 ft 144 kts 90°
2026-05-01 09:39 63.45769 10.88418 158 ft 148 kts 91°
2026-05-01 09:39 63.45762 10.90683 33 ft 143 kts 89°
2026-05-01 09:39 63.45758 10.92541 42 ft 70 kts 90°
2026-05-01 09:40 63.45757 10.93486 53 ft 44 kts 90°
2026-05-01 09:40 63.45749 10.94065 54 ft 7 kts 123°
2026-05-01 09:40 63.45705 10.94070 59 ft 7 kts 216°
2026-05-01 09:41 63.45669 10.93997 57 ft 7 kts 223°
2026-05-01 09:41 63.45606 10.93840 56 ft 7 kts 242°
2026-05-01 09:41 63.45594 10.93740 51 ft 7 kts 264°
2026-05-01 09:42 63.45593 10.93617 57 ft 9 kts 268°
2026-05-01 09:42 63.45591 10.93467 54 ft 11 kts 270°
2026-05-01 09:42 63.45594 10.93088 49 ft 14 kts 270°
2026-05-01 09:43 63.45594 10.92616 42 ft 14 kts 270°
2026-05-01 09:43 63.45594 10.92468 41 ft 4 kts 268°
2026-05-01 09:43 63.45578 10.92426 39 ft 4 kts 198°
2026-05-01 09:44 63.45555 10.92266 38 ft 11 kts 269°
2026-05-01 09:44 63.45556 10.92102 38 ft 9 kts 270°
2026-05-01 09:44 63.45556 10.91976 38 ft 7 kts 270°
2026-05-01 09:45 63.45545 10.91912 36 ft 4 kts 205°
2026-05-01 09:45 63.45499 10.91907 38 ft 0 kts 180°